Погода в Бабугенте

Россия / Кабардино-Балкарская Республика     43°16′36″N   43°32′55″E
темп.,
°C
ветер,
м/с
пор.,
м/с
влажн.,
%
обл.,
%
осадки,
мм/ч
давл.,
гПа
погр.,
м
16 июня, ср
ср1600:00+11юз437325 0.0 101438
03:00+12юз32739 0.0 101324
06:00+15юз11800 0.0 101249
09:00+19всв327336 0.1 1011792
12:00+20всв437264 0.1 1010939
15:00+18всв338683 0.4 1010571
18:00+17в129486 0.2 1010112
21:00+16юз229029 0.2 101022
17 июня, чт
чт1700:00+14юз32784 0.0 100927
03:00+14юз45660 0.0 100779
06:00+16юз45660 0.0 100686
09:00+21св23560 0.0 1008642
12:00+19всв438063 0.6 1011744
15:00+16всв339595 2.1 1013324
18:00+15в129679 1.1 1015235
21:00+15ю119167 1.5 101711
18 июня, пт
пт1800:00+12юз228639 0.1 101820
03:00+11ююз118590 0.1 101915
06:00+12ююв119086 0.4 101946
09:00+15всв238667 0.5 1019521
12:00+17всв327379 0.2 1018944
15:00+17всв2283100 0.6 1019820
18:00+15в1297100 0.8 1019104
21:00+14ююв119785 0.9 102082
19 июня, сб
сб1900:00+13юз119252 0.0 102013
03:00+13ююз119052 0.0 102013
06:00+14ю01881 0.0 102096
09:00+18всв327318 0.0 1019726
12:00+20всв337265 0.1 1019965
15:00+18всв338593 0.4 1019655
18:00+17вюв129386 0.3 1019203
21:00+16юз218949 0.3 102017
20 июня, вс
вс2000:00+14юз327624 0.0 101920
03:00+14юз33560 0.0 101827
06:00+16юз22600 0.0 101723
09:00+21всв21550 0.0 1015380
12:00+24всв32560 0.0 1014736
15:00+24всв33620 0.0 1014745
18:00+21всв22788 0.0 1015309
21:00+17юз33650 0.0 101628